Lid_Strength_Index
4 4 4 3 3 1 2 3 3 0 1 2 2 3 2 2 3 4 5 6 7 7
3 4 3 2 2 2 3 3 2 1 2 2 2 3 3 3 4 4 5 6 7 7
3 3 3 3 3 3 3 3 3 2 1 2 2 2 2 3 4 5 6 6 8 8
4 4 4 4 4 4 4 3 3 4 3 3 3 3 5 5 6 6 7 7 7 8
4 4 5 5 5 4 4 4 5 5 5 5 4 5 5 6 6 7 8 8 8 8
4 6 6 6 6 5 4 5 5 5 5 5 5 6 6 6 7 7 7 7 7 7
5 5 6 6 6 6 6 5 5 6 6 6 6 6 6 6 7 7 7 7 7 7
6 6 7 8 8 8 8 7 7 7 7 6 6 6 7 7 8 8 8 8 8 9
7 7 8 8 8 9 9 9 8 8 8 7 6 5 6 7 8 9 9 10 9 7
7 7 8 8 8 8 9 8 8 8 7 7 6 5 6 7 9 9 9 9 9 8
7 8 8 8 9 9 10 9 8 8 8 8 6 4 5 6 9 9 9 9 10 10
7 8 8 9 11 11 11 11 11 10 9 9 8 5 6 9 11 12 12 12 11 11
7 8 10 12 12 12 12 12 11 12 11 7 9 6 7 11 12 13 13 13 11 8
8 11 11 12 13 13 13 13 14 14 13 12 10 9 7 9 13 13 13 13 13 11